Location: Unspecified
(0.0000°N, 0.0000°E)
Time: 09:52:05
(UTC+00:00)

USA 142 - Visible Passes

Search period start: 16 September 2024 00:00
Search period end: 26 September 2024 00:00
Orbit: 624 x 34687 km, 29.2° (Epoch: 15 September)

Date Brightness Start Highest point End Pass type
(mag) Time Alt. Az. Time Alt. Az. Time Alt. Az.
16 Sep 7.7 10:25:04 10° WSW 18:30:31 74° E 20:01:31 15° ENE visible
17 Sep 12.3 18:44:05 10° WSW 19:53:55 16° WSW 21:39:58 10° WSW visible
18 Sep 8.6 14:14:56 10° SW 17:25:15 61° SW 23:32:00 39° NNW visible
19 Sep 7.9 10:32:24 10° WSW 18:35:21 79° E 20:08:14 17° NE visible
20 Sep 12.5 19:08:46 10° WSW 19:58:15 13° WSW 21:03:47 10° WSW visible
21 Sep 8.7 14:23:21 10° SW 17:17:08 58° SW 23:38:42 35° NNW visible
22 Sep 8.1 10:39:47 10° WSW 18:37:39 84° E 20:14:55 20° NE visible
24 Sep 8.7 14:31:54 10° SW 17:12:13 56° SW 23:45:22 32° NW visible
25 Sep 8.2 10:47:13 10° WSW 18:33:51 89° ENE 20:21:36 22° NE visible
